Location: Austin
(30.3000°N, 97.7500°W)
Time: 23:38:28
(UTC-05:00)

SPOT 5 - Pass Details

Date: 06 May 2026
Orbit: 618 x 803 km, 98.0° (Epoch: 13 May)

Event Time Altitude Azimuth Distance (km) Brightness Sun altitude
Exits shadow 21:40:47 11° 186° (S) 1,953 4.9 -17.9°
Maximum altitude 21:44:50 47° 260° (W) 820 3.4 -18.7°
Drops below altitude 10° 21:48:58 10° 335° (NNW) 1,984 6.0 -19.4°
Sets 21:51:13 0° 341° (NNW) 2,895 6.9 -19.8°
